Pagina principale
METAR-TAF:

METAR-TAF

Aeroporti :

Aeroporto di Belgrado-Nikola Tesla

Belgrado, Serbia

latitudine: 44-49N, longitudine: 020-17E, altezza: 96 m

Osservazione

Il bollettino è stato emesso 37 minuti fa, alle 12:30 UTC
Vento 14 kt da est/sud-est
Temperature 18°C
Umidità 52%
Pressione 1014 hPa
Visibilità 10 km o più
nessuna nube inferiore a 1500 m e nessun cumulonembo

METAR: LYBE 211230Z 11014KT CAVOK 18/08 Q1014 NOSIG

Ora: 14:07 (13:07 UTC)

Previsione

Il bollettino è stato emesso 2 ore e 7 minuti fa, alle 11:00 UTC
Previsione valida dal 21 alle 12 UTC al 22 alle 12 UTC
Vento 14 kt da sud-est
Visibilità 10 km o più
nessuna nube inferiore a 1500 m e nessun cumulonembo
Temporaneamente
dal 21 alle 18 UTC al 22 alle 12 UTC
Vento 15 kt da est/sud-est con raffiche fino a 25 kt

TAF: LYBE 211100Z 2112/2212 13014KT CAVOK TX18/2112Z TN09/2206Z TEMPO 2118/2212 11015G25KT

Osservazioni e previsioni meteorologiche di più di 4000 aeroporti (messaggi METAR e TAF).

Le stazioni disponibili sono rappresentate dai dischi gialli e rossi sulla carta.

Puntare il mouse per vedere il nome della stazione.

Clicca sopra per visualizzare le osservazioni e previsioni meteorologiche.

Per cambiare la mappa : fare clic sui pulsanti verdi con una croce nera per ingrandire, il pulsante verde con un trattino per diminuire, o sulla freccia verde per le mappe adiacenti.


METAR-TAF: